Location: Newark
(51.0000°N, 11.4100°E)
Time: 16:49:55
(UTC+00:00)

N. Korean satellite - Pass Details

Date: 28 October 2019
Orbit: 456 x 506 km, 97.2° (Epoch: 17 November)

Event Time Altitude Azimuth Distance (km) Brightness Sun altitude
Rises 04:29:40 0° 23° (NNE) 2,586 10.5 -14.5°
Reaches altitude 10° 04:32:01 10° 37° (NE) 1,706 9.8 -14.2°
Maximum altitude 04:35:06 25° 94° (E) 1,046 9.2 -13.7°
Drops below altitude 10° 04:38:12 10° 151° (SSE) 1,710 9.8 -13.2°
Sets 04:40:33 0° 165° (SSE) 2,593 10.5 -12.8°
